Simultaneous Nadir Overpasses (SNOs) Predictions

Prediction of SNOs between GOES-15 and TERRA Satellite Orbit:

Table of predicted SNOs for the next 14.0 days since TLE Epoch: 4/28/2012
Index Date Time (GOES-15) GOES-15 Lat,Lon TERRA Lat,Lon Distance(km) Time Diff (sec)
1 04/28/2012 19:18:49 -0.12,-135.10 -0.65,-132.69 274.03 80
2 04/29/2012 07:42:53 0.12,-135.10 -0.47,-137.88 315.77 80
3 05/01/2012 07:28:02 0.12,-135.16 0.16,-134.92 26.26 80
4 05/03/2012 07:15:51 0.12,-135.21 0.81,-131.97 367.80 80
5 05/03/2012 19:39:46 -0.11,-135.23 0.31,-137.12 215.86 80
6 05/05/2012 19:24:55 -0.12,-135.27 -0.36,-134.17 124.81 80
7 05/06/2012 07:48:58 0.11,-135.27 -0.75,-139.36 465.34 80
8 05/07/2012 19:12:43 -0.12,-135.30 -0.99,-131.22 464.67 80
9 05/08/2012 07:36:47
